N12215 KVGT-KPOC

Flight info

Callsign N12215
Flight time 1h 45m
Altitude 12000
Route NOTWN5 LAS V394 POM
Aircraft P28R/L-VGD/C

Departure

Time 2026-04-29 04:02
Airport North Las Vegas Airport (KVGT)

Arrival

Time 2026-04-29 05:48
Airport Brackett Field (KPOC)
Time Latitude Longitude Altitude Speed Heading
2026-04-29 03:52 36.20747 -115.20052 2201 ft 0 kts 45°
2026-04-29 03:56 36.20747 -115.20050 2201 ft 2 kts 70°
2026-04-29 03:56 36.20747 -115.19996 2200 ft 6 kts 90°
2026-04-29 03:57 36.20760 -115.19936 2197 ft 8 kts 62°
2026-04-29 03:57 36.20803 -115.19873 2197 ft 10 kts 39°
2026-04-29 03:57 36.20857 -115.19862 2198 ft 6 kts 347°
2026-04-29 03:57 36.20896 -115.19853 2197 ft 9 kts 14°
2026-04-29 03:58 36.20977 -115.19825 2196 ft 12 kts 314°
2026-04-29 03:58 36.21022 -115.19888 2198 ft 10 kts 314°
2026-04-29 03:58 36.21091 -115.19975 2202 ft 17 kts 314°
2026-04-29 03:58 36.21174 -115.20079 2204 ft 16 kts 314°
2026-04-29 03:59 36.21230 -115.20183 2206 ft 11 kts 269°
2026-04-29 03:59 36.21227 -115.20260 2208 ft 6 kts 269°
2026-04-29 03:59 36.21241 -115.20332 2209 ft 8 kts 354°
2026-04-29 03:59 36.21321 -115.20333 2209 ft 14 kts 359°
2026-04-29 04:00 36.21405 -115.20332 2209 ft 9 kts 23°
2026-04-29 04:00 36.21423 -115.20317 2209 ft 0 kts 44°
2026-04-29 04:01 36.21424 -115.20316 2209 ft 2 kts 44°
2026-04-29 04:01 36.21453 -115.20253 2208 ft 10 kts 111°
2026-04-29 04:01 36.21357 -115.20126 2205 ft 43 kts 134°
2026-04-29 04:01 36.21036 -115.19727 2207 ft 81 kts 135°
2026-04-29 04:02 36.20630 -115.19231 2395 ft 82 kts 136°
2026-04-29 04:02 36.20258 -115.18747 2690 ft 75 kts 132°
2026-04-29 04:02 36.19871 -115.18259 2913 ft 78 kts 126°
2026-04-29 04:02 36.19526 -115.17732 3114 ft 83 kts 123°
2026-04-29 04:03 36.19206 -115.17180 3405 ft 78 kts 119°
2026-04-29 04:03 36.18905 -115.16585 3633 ft 80 kts 117°
2026-04-29 04:03 36.18527 -115.16077 3818 ft 89 kts 149°
2026-04-29 04:03 36.17942 -115.16045 4128 ft 85 kts 191°
2026-04-29 04:04 36.17460 -115.16530 4332 ft 94 kts 234°
2026-04-29 04:04 36.17299 -115.17287 4613 ft 91 kts 257°
2026-04-29 04:04 36.17231 -115.18070 4837 ft 94 kts 259°
2026-04-29 04:04 36.17174 -115.18857 5102 ft 91 kts 259°
2026-04-29 04:05 36.17117 -115.19647 5343 ft 91 kts 258°
2026-04-29 04:05 36.17062 -115.20439 5561 ft 95 kts 259°
2026-04-29 04:05 36.17003 -115.21217 5845 ft 89 kts 258°
2026-04-29 04:05 36.16951 -115.21976 6074 ft 91 kts 261°
2026-04-29 04:06 36.16928 -115.22739 6311 ft 92 kts 272°
2026-04-29 04:06 36.17262 -115.23432 6541 ft 95 kts 316°
2026-04-29 04:06 36.17829 -115.23822 6802 ft 93 kts 328°
2026-04-29 04:06 36.18419 -115.24199 7009 ft 97 kts 327°
2026-04-29 04:07 36.19016 -115.24607 7227 ft 99 kts 325°
2026-04-29 04:07 36.19599 -115.25030 7490 ft 96 kts 324°
2026-04-29 04:07 36.20174 -115.25459 7709 ft 98 kts 323°
2026-04-29 04:07 36.20755 -115.25898 7943 ft 98 kts 322°
2026-04-29 04:08 36.21338 -115.26343 8173 ft 99 kts 322°
2026-04-29 04:08 36.21917 -115.26788 8432 ft 97 kts 319°
2026-04-29 04:08 36.22499 -115.27239 8650 ft 99 kts 321°
2026-04-29 04:08 36.23066 -115.27676 8888 ft 98 kts 319°
2026-04-29 04:09 36.23656 -115.28127 9120 ft 98 kts 319°
2026-04-29 04:09 36.24239 -115.28580 9353 ft 99 kts 320°
2026-04-29 04:09 36.24801 -115.29047 9600 ft 97 kts 316°
2026-04-29 04:09 36.25337 -115.29552 9840 ft 97 kts 312°
2026-04-29 04:10 36.25847 -115.30090 10081 ft 96 kts 309°
2026-04-29 04:10 36.26306 -115.30687 10314 ft 93 kts 288°
2026-04-29 04:10 36.26745 -115.31290 10414 ft 115 kts 340°
2026-04-29 04:10 36.27436 -115.30868 10723 ft 110 kts 55°
2026-04-29 04:11 36.27734 -115.30051 10901 ft 117 kts 69°
2026-04-29 04:11 36.27847 -115.29092 11214 ft 103 kts 104°
2026-04-29 04:11 36.27525 -115.28280 11362 ft 109 kts 130°
2026-04-29 04:11 36.27116 -115.27557 11643 ft 101 kts 137°
2026-04-29 04:12 36.26493 -115.27159 11797 ft 98 kts 174°
2026-04-29 04:12 36.25902 -115.26843 12056 ft 100 kts 161°
2026-04-29 04:12 36.25191 -115.26419 12038 ft 124 kts 160°
2026-04-29 04:12 36.24361 -115.25925 12028 ft 140 kts 160°
2026-04-29 04:13 36.23453 -115.25370 12022 ft 151 kts 160°
2026-04-29 04:13 36.22484 -115.24782 12020 ft 159 kts 161°
2026-04-29 04:13 36.21477 -115.24174 12016 ft 163 kts 160°
2026-04-29 04:13 36.20453 -115.23550 12016 ft 165 kts 160°
2026-04-29 04:14 36.19410 -115.22916 12014 ft 166 kts 160°
2026-04-29 04:14 36.18373 -115.22289 12015 ft 167 kts 161°
2026-04-29 04:14 36.17323 -115.21653 12015 ft 166 kts 161°
2026-04-29 04:14 36.16274 -115.21012 12016 ft 167 kts 160°
2026-04-29 04:15 36.15233 -115.20378 12015 ft 167 kts 161°
2026-04-29 04:15 36.14175 -115.19736 12016 ft 167 kts 159°
2026-04-29 04:15 36.13123 -115.19101 12016 ft 168 kts 159°
2026-04-29 04:15 36.12083 -115.18470 12018 ft 168 kts 159°
2026-04-29 04:16 36.11026 -115.17831 12014 ft 168 kts 160°
2026-04-29 04:16 36.09980 -115.17197 12019 ft 168 kts 161°
2026-04-29 04:16 36.08930 -115.16567 12016 ft 166 kts 163°
2026-04-29 04:16 36.07853 -115.16634 12001 ft 152 kts 212°
2026-04-29 04:17 36.07007 -115.17385 12061 ft 146 kts 218°
2026-04-29 04:17 36.06313 -115.18168 12414 ft 125 kts 226°
2026-04-29 04:17 36.05710 -115.18916 12612 ft 120 kts 228°
2026-04-29 04:17 36.05135 -115.19651 12774 ft 119 kts 229°
2026-04-29 04:18 36.04596 -115.20342 13090 ft 106 kts 229°
2026-04-29 04:18 36.04087 -115.21003 13249 ft 107 kts 229°
2026-04-29 04:18 36.03582 -115.21653 13458 ft 105 kts 230°
2026-04-29 04:18 36.03065 -115.22324 13584 ft 108 kts 230°
2026-04-29 04:19 36.02564 -115.22965 13857 ft 100 kts 230°
2026-04-29 04:19 36.02067 -115.23611 13904 ft 111 kts 230°
2026-04-29 04:19 36.01562 -115.24264 14203 ft 99 kts 230°
2026-04-29 04:19 36.01080 -115.24886 14375 ft 99 kts 231°
2026-04-29 04:20 36.00647 -115.25442 14716 ft 85 kts 230°
2026-04-29 04:20 36.00245 -115.25957 14926 ft 82 kts 229°
2026-04-29 04:20 35.99847 -115.26472 15080 ft 85 kts 231°
2026-04-29 04:20 35.99462 -115.26969 15331 ft 78 kts 229°
2026-04-29 04:21 35.99076 -115.27462 15474 ft 81 kts 231°
2026-04-29 04:21 35.98689 -115.27966 15673 ft 79 kts 232°
2026-04-29 04:21 35.98311 -115.28459 15809 ft 83 kts 229°
2026-04-29 04:21 35.97922 -115.28958 16016 ft 80 kts 232°
2026-04-29 04:22 35.97503 -115.29502 16040 ft 93 kts 232°
2026-04-29 04:22 35.97033 -115.30124 16046 ft 105 kts 231°
2026-04-29 04:22 35.96502 -115.30810 16052 ft 115 kts 232°
2026-04-29 04:22 35.95926 -115.31561 16052 ft 123 kts 230°
2026-04-29 04:23 35.95322 -115.32342 16052 ft 129 kts 230°
2026-04-29 04:23 35.94687 -115.33159 16054 ft 132 kts 232°
2026-04-29 04:23 35.94050 -115.33985 16058 ft 135 kts 231°
2026-04-29 04:23 35.93393 -115.34840 16059 ft 137 kts 231°
2026-04-29 04:24 35.92732 -115.35686 16061 ft 138 kts 230°
2026-04-29 04:24 35.92063 -115.36549 16065 ft 139 kts 230°
2026-04-29 04:24 35.91397 -115.37412 16062 ft 140 kts 230°
2026-04-29 04:24 35.90714 -115.38285 16069 ft 141 kts 231°
2026-04-29 04:25 35.90036 -115.39164 16073 ft 141 kts 230°
2026-04-29 04:25 35.89348 -115.40046 16075 ft 141 kts 232°
2026-04-29 04:25 35.88673 -115.40924 16088 ft 141 kts 230°
2026-04-29 04:25 35.87991 -115.41795 16083 ft 142 kts 230°
2026-04-29 04:26 35.87306 -115.42677 16085 ft 143 kts 230°
2026-04-29 04:26 35.86621 -115.43555 16084 ft 143 kts 231°
2026-04-29 04:26 35.85930 -115.44443 16084 ft 143 kts 231°
2026-04-29 04:26 35.85237 -115.45338 16077 ft 143 kts 230°
2026-04-29 04:27 35.84550 -115.46223 16080 ft 142 kts 231°
2026-04-29 04:27 35.83863 -115.47100 16091 ft 143 kts 230°
2026-04-29 04:27 35.83173 -115.47987 16089 ft 143 kts 231°
2026-04-29 04:27 35.82487 -115.48867 16090 ft 143 kts 230°
2026-04-29 04:28 35.81794 -115.49756 16089 ft 143 kts 231°
2026-04-29 04:28 35.81114 -115.50633 16088 ft 143 kts 231°
2026-04-29 04:28 35.80425 -115.51518 16086 ft 142 kts 232°
2026-04-29 04:28 35.79737 -115.52401 16083 ft 141 kts 231°
2026-04-29 04:29 35.79053 -115.53273 16081 ft 142 kts 231°
2026-04-29 04:29 35.78366 -115.54153 16083 ft 142 kts 230°
2026-04-29 04:29 35.77689 -115.55025 16082 ft 141 kts 231°
2026-04-29 04:29 35.77015 -115.55893 16080 ft 141 kts 232°
2026-04-29 04:30 35.76328 -115.56769 16079 ft 142 kts 230°
2026-04-29 04:30 35.75641 -115.57647 16079 ft 142 kts 231°
2026-04-29 04:30 35.74270 -115.59404 16079 ft 142 kts 230°
2026-04-29 04:31 35.73577 -115.60288 16074 ft 142 kts 231°
2026-04-29 04:31 35.72896 -115.61159 16072 ft 142 kts 231°
2026-04-29 04:31 35.72203 -115.62045 16070 ft 142 kts 231°
2026-04-29 04:31 35.71514 -115.62927 16071 ft 142 kts 231°
2026-04-29 04:32 35.70835 -115.63790 16067 ft 142 kts 231°
2026-04-29 04:32 35.70146 -115.64671 16070 ft 141 kts 231°
2026-04-29 04:32 35.69467 -115.65543 16073 ft 142 kts 230°
2026-04-29 04:32 35.68780 -115.66425 16070 ft 142 kts 231°
2026-04-29 04:33 35.68099 -115.67298 16070 ft 142 kts 231°
2026-04-29 04:33 35.67408 -115.68181 16070 ft 142 kts 231°
2026-04-29 04:33 35.66723 -115.69057 16074 ft 143 kts 231°
2026-04-29 04:33 35.66032 -115.69940 16065 ft 143 kts 231°
2026-04-29 04:34 35.65345 -115.70815 16064 ft 143 kts 231°
2026-04-29 04:34 35.64646 -115.71699 16067 ft 143 kts 230°
2026-04-29 04:34 35.63962 -115.72578 16062 ft 143 kts 231°
2026-04-29 04:34 35.63266 -115.73464 16063 ft 143 kts 231°
2026-04-29 04:35 35.62579 -115.74340 16061 ft 143 kts 230°
2026-04-29 04:35 35.61880 -115.75228 16059 ft 143 kts 231°
2026-04-29 04:35 35.61195 -115.76107 16061 ft 142 kts 230°
2026-04-29 04:35 35.60504 -115.76977 16063 ft 142 kts 230°
2026-04-29 04:36 35.59820 -115.77858 16055 ft 142 kts 231°
2026-04-29 04:36 35.59124 -115.78732 16067 ft 142 kts 231°
2026-04-29 04:36 35.58443 -115.79604 16062 ft 143 kts 231°
2026-04-29 04:36 35.57748 -115.80485 16062 ft 143 kts 230°
2026-04-29 04:37 35.57063 -115.81360 16066 ft 143 kts 230°
2026-04-29 04:37 35.56368 -115.82247 16062 ft 143 kts 230°
2026-04-29 04:37 35.55682 -115.83119 16061 ft 142 kts 230°
2026-04-29 04:37 35.54985 -115.84000 16059 ft 143 kts 230°
2026-04-29 04:38 35.54303 -115.84872 16061 ft 142 kts 231°
2026-04-29 04:38 35.53611 -115.85754 16060 ft 142 kts 231°
2026-04-29 04:38 35.52925 -115.86622 16056 ft 142 kts 231°
2026-04-29 04:38 35.52232 -115.87497 16060 ft 141 kts 231°
2026-04-29 04:39 35.51556 -115.88359 16062 ft 142 kts 230°
2026-04-29 04:39 35.50863 -115.89237 16056 ft 143 kts 231°
2026-04-29 04:39 35.50178 -115.90103 16055 ft 142 kts 232°
2026-04-29 04:39 35.49490 -115.90985 16054 ft 142 kts 231°
2026-04-29 04:40 35.48805 -115.91846 16055 ft 142 kts 231°
2026-04-29 04:40 35.48113 -115.92719 16051 ft 142 kts 231°
2026-04-29 04:40 35.47434 -115.93589 16049 ft 142 kts 231°
2026-04-29 04:40 35.46740 -115.94463 16049 ft 141 kts 231°
2026-04-29 04:41 35.46061 -115.95322 16046 ft 141 kts 231°
2026-04-29 04:41 35.45377 -115.96194 16041 ft 141 kts 230°
2026-04-29 04:41 35.44688 -115.97057 16040 ft 141 kts 230°
2026-04-29 04:41 35.44015 -115.97916 16038 ft 140 kts 231°
2026-04-29 04:42 35.43333 -115.98769 16036 ft 140 kts 230°
2026-04-29 04:42 35.42649 -115.99634 16035 ft 140 kts 231°
2026-04-29 04:42 35.41972 -116.00485 16033 ft 140 kts 231°
2026-04-29 04:42 35.41290 -116.01356 16030 ft 140 kts 231°
2026-04-29 04:43 35.40615 -116.02206 16025 ft 140 kts 231°
2026-04-29 04:43 35.39930 -116.03066 16026 ft 140 kts 231°
2026-04-29 04:43 35.39259 -116.03916 16026 ft 140 kts 231°
2026-04-29 04:43 35.38575 -116.04776 16024 ft 140 kts 230°
2026-04-29 04:44 35.37902 -116.05626 16026 ft 140 kts 231°
2026-04-29 04:44 35.37219 -116.06491 16024 ft 140 kts 231°
2026-04-29 04:44 35.36542 -116.07341 16021 ft 140 kts 232°
2026-04-29 04:44 35.35862 -116.08200 16021 ft 140 kts 231°
2026-04-29 04:45 35.35179 -116.09061 16019 ft 140 kts 231°
2026-04-29 04:45 35.34510 -116.09910 16014 ft 139 kts 231°
2026-04-29 04:45 35.33830 -116.10771 16013 ft 140 kts 231°
2026-04-29 04:45 35.33157 -116.11617 16015 ft 140 kts 231°
2026-04-29 04:46 35.32471 -116.12479 16019 ft 140 kts 231°
2026-04-29 04:46 35.31799 -116.13330 16020 ft 140 kts 230°
2026-04-29 04:46 35.31111 -116.14190 16025 ft 140 kts 230°
2026-04-29 04:46 35.30435 -116.15037 16023 ft 140 kts 231°
2026-04-29 04:47 35.29754 -116.15904 16023 ft 140 kts 231°
2026-04-29 04:47 35.29083 -116.16750 16020 ft 140 kts 230°
2026-04-29 04:47 35.28399 -116.17607 16019 ft 140 kts 231°
2026-04-29 04:47 35.27719 -116.18465 16020 ft 140 kts 231°
2026-04-29 04:48 35.27034 -116.19323 16024 ft 140 kts 231°
2026-04-29 04:48 35.26365 -116.20172 16024 ft 139 kts 231°
2026-04-29 04:48 35.25684 -116.21029 16024 ft 139 kts 232°
2026-04-29 04:48 35.25012 -116.21870 16025 ft 139 kts 232°
2026-04-29 04:49 35.24333 -116.22723 16026 ft 140 kts 231°
2026-04-29 04:49 35.23652 -116.23584 16027 ft 140 kts 231°
2026-04-29 04:49 35.22974 -116.24432 16027 ft 140 kts 231°
2026-04-29 04:49 35.22291 -116.25293 16025 ft 140 kts 231°
2026-04-29 04:50 35.21613 -116.26139 16025 ft 140 kts 231°
2026-04-29 04:50 35.20931 -116.26997 16024 ft 140 kts 232°
2026-04-29 04:50 35.20259 -116.27839 16020 ft 139 kts 231°
2026-04-29 04:50 35.19581 -116.28687 16021 ft 138 kts 232°
2026-04-29 04:51 35.18922 -116.29518 16023 ft 137 kts 231°
2026-04-29 04:51 35.18252 -116.30349 16018 ft 137 kts 231°
2026-04-29 04:51 35.17591 -116.31186 16017 ft 136 kts 231°
2026-04-29 04:51 35.16925 -116.32015 16014 ft 136 kts 231°
2026-04-29 04:52 35.16270 -116.32836 16012 ft 136 kts 232°
2026-04-29 04:52 35.15607 -116.33667 16013 ft 136 kts 231°
2026-04-29 04:52 35.14946 -116.34488 16016 ft 136 kts 231°
2026-04-29 04:52 35.14286 -116.35316 16012 ft 136 kts 231°
2026-04-29 04:53 35.13618 -116.36148 16012 ft 135 kts 232°
2026-04-29 04:53 35.12967 -116.36970 16009 ft 135 kts 232°
2026-04-29 04:53 35.12310 -116.37785 16008 ft 135 kts 232°
2026-04-29 04:53 35.11646 -116.38615 16005 ft 135 kts 232°
2026-04-29 04:54 35.10990 -116.39434 16005 ft 135 kts 231°
2026-04-29 04:54 35.10334 -116.40250 16004 ft 135 kts 231°
2026-04-29 04:54 35.09686 -116.41069 16007 ft 134 kts 231°
2026-04-29 04:54 35.09022 -116.41890 16011 ft 135 kts 232°
2026-04-29 04:55 35.08371 -116.42705 16011 ft 135 kts 232°
2026-04-29 04:55 35.07712 -116.43520 16008 ft 135 kts 232°
2026-04-29 04:55 35.07059 -116.44340 16010 ft 135 kts 231°
2026-04-29 04:55 35.06395 -116.45165 16011 ft 135 kts 231°
2026-04-29 04:56 35.05741 -116.45979 16009 ft 135 kts 232°
2026-04-29 04:56 35.05089 -116.46793 16010 ft 134 kts 233°
2026-04-29 04:56 35.04429 -116.47622 16007 ft 135 kts 231°
2026-04-29 04:56 35.03774 -116.48441 16007 ft 135 kts 231°
2026-04-29 04:57 35.03114 -116.49261 16007 ft 134 kts 231°
2026-04-29 04:57 35.02467 -116.50072 16008 ft 134 kts 231°
2026-04-29 04:57 35.01809 -116.50881 16008 ft 134 kts 231°
2026-04-29 04:57 35.01153 -116.51696 16010 ft 134 kts 232°
2026-04-29 04:58 35.00503 -116.52512 16009 ft 134 kts 232°
2026-04-29 04:58 34.99853 -116.53319 16008 ft 134 kts 232°
2026-04-29 04:58 34.99189 -116.54143 16011 ft 134 kts 231°
2026-04-29 04:58 34.98537 -116.54955 16010 ft 134 kts 231°
2026-04-29 04:59 34.97881 -116.55771 16014 ft 134 kts 231°
2026-04-29 04:59 34.97228 -116.56583 16013 ft 134 kts 232°
2026-04-29 04:59 34.96574 -116.57392 15990 ft 136 kts 231°
2026-04-29 04:59 34.95913 -116.58236 15923 ft 138 kts 234°
2026-04-29 05:00 34.95279 -116.59132 15914 ft 138 kts 234°
2026-04-29 05:00 34.94656 -116.60006 15911 ft 137 kts 234°
2026-04-29 05:00 34.94034 -116.60872 15915 ft 136 kts 234°
2026-04-29 05:00 34.93406 -116.61745 15917 ft 136 kts 235°
2026-04-29 05:01 34.92787 -116.62611 15918 ft 135 kts 234°
2026-04-29 05:01 34.92171 -116.63468 15919 ft 135 kts 234°
2026-04-29 05:01 34.91552 -116.64326 15921 ft 135 kts 234°
2026-04-29 05:01 34.90926 -116.65198 15922 ft 135 kts 233°
2026-04-29 05:02 34.90302 -116.66058 15928 ft 135 kts 234°
2026-04-29 05:02 34.89675 -116.66927 15933 ft 135 kts 234°
2026-04-29 05:02 34.89045 -116.67801 15937 ft 136 kts 233°
2026-04-29 05:02 34.88425 -116.68665 15941 ft 136 kts 233°
2026-04-29 05:03 34.87793 -116.69536 15943 ft 137 kts 233°
2026-04-29 05:03 34.87170 -116.70406 15941 ft 137 kts 233°
2026-04-29 05:03 34.86532 -116.71282 15948 ft 137 kts 233°
2026-04-29 05:03 34.85909 -116.72153 15947 ft 137 kts 232°
2026-04-29 05:04 34.85280 -116.73025 15947 ft 137 kts 234°
2026-04-29 05:04 34.84643 -116.73904 15951 ft 137 kts 233°
2026-04-29 05:04 34.84013 -116.74772 15954 ft 137 kts 233°
2026-04-29 05:04 34.83388 -116.75633 15954 ft 136 kts 234°
2026-04-29 05:05 34.82764 -116.76504 15961 ft 136 kts 234°
2026-04-29 05:05 34.82139 -116.77359 15957 ft 136 kts 232°
2026-04-29 05:05 34.81506 -116.78230 15962 ft 136 kts 233°
2026-04-29 05:05 34.80888 -116.79091 15963 ft 136 kts 233°
2026-04-29 05:06 34.80254 -116.79964 15966 ft 136 kts 233°
2026-04-29 05:06 34.79633 -116.80824 15965 ft 136 kts 234°
2026-04-29 05:06 34.78999 -116.81697 15961 ft 136 kts 233°
2026-04-29 05:06 34.78380 -116.82557 15965 ft 135 kts 233°
2026-04-29 05:07 34.77755 -116.83413 15963 ft 136 kts 234°
2026-04-29 05:07 34.77124 -116.84286 15959 ft 136 kts 233°
2026-04-29 05:07 34.76499 -116.85149 15960 ft 136 kts 234°
2026-04-29 05:07 34.75863 -116.86019 15963 ft 137 kts 233°
2026-04-29 05:08 34.75234 -116.86884 15963 ft 137 kts 233°
2026-04-29 05:08 34.74612 -116.87749 15969 ft 136 kts 233°
2026-04-29 05:08 34.73972 -116.88621 15967 ft 137 kts 233°
2026-04-29 05:08 34.73341 -116.89493 15962 ft 137 kts 234°
2026-04-29 05:09 34.72718 -116.90351 15962 ft 136 kts 234°
2026-04-29 05:09 34.72082 -116.91222 15967 ft 137 kts 233°
2026-04-29 05:09 34.71459 -116.92087 15962 ft 137 kts 233°
2026-04-29 05:09 34.70826 -116.92947 15960 ft 137 kts 234°
2026-04-29 05:10 34.70199 -116.93816 15963 ft 137 kts 233°
2026-04-29 05:10 34.69568 -116.94676 15964 ft 137 kts 233°
2026-04-29 05:10 34.68931 -116.95544 15957 ft 136 kts 233°
2026-04-29 05:10 34.68311 -116.96403 15956 ft 136 kts 234°
2026-04-29 05:11 34.67677 -116.97271 15960 ft 136 kts 233°
2026-04-29 05:11 34.67056 -116.98128 15962 ft 136 kts 233°
2026-04-29 05:11 34.66426 -116.98985 15963 ft 136 kts 234°
2026-04-29 05:11 34.65802 -116.99846 15963 ft 136 kts 233°
2026-04-29 05:12 34.65161 -117.00713 15958 ft 136 kts 233°
2026-04-29 05:12 34.64540 -117.01572 15957 ft 136 kts 233°
2026-04-29 05:12 34.63913 -117.02427 15960 ft 136 kts 233°
2026-04-29 05:12 34.63285 -117.03284 15966 ft 136 kts 233°
2026-04-29 05:13 34.62655 -117.04154 15962 ft 136 kts 232°
2026-04-29 05:13 34.62025 -117.05009 15959 ft 136 kts 233°
2026-04-29 05:13 34.61400 -117.05872 15964 ft 136 kts 233°
2026-04-29 05:13 34.60768 -117.06728 15962 ft 136 kts 233°
2026-04-29 05:14 34.60132 -117.07599 15961 ft 136 kts 233°
2026-04-29 05:14 34.59506 -117.08456 15960 ft 136 kts 234°
2026-04-29 05:14 34.58874 -117.09313 15963 ft 137 kts 233°
2026-04-29 05:14 34.58243 -117.10171 15961 ft 136 kts 233°
2026-04-29 05:15 34.57611 -117.11040 15962 ft 136 kts 233°
2026-04-29 05:15 34.56981 -117.11898 15963 ft 136 kts 233°
2026-04-29 05:15 34.56353 -117.12758 15993 ft 134 kts 233°
2026-04-29 05:15 34.55734 -117.13605 16002 ft 134 kts 234°
2026-04-29 05:16 34.55104 -117.14449 16001 ft 135 kts 233°
2026-04-29 05:16 34.54485 -117.15293 15996 ft 132 kts 234°
2026-04-29 05:16 34.53919 -117.16079 15835 ft 121 kts 235°
2026-04-29 05:16 34.53349 -117.16868 15470 ft 129 kts 234°
2026-04-29 05:17 34.52754 -117.17677 15253 ft 124 kts 235°
2026-04-29 05:17 34.52200 -117.18445 15033 ft 122 kts 234°
2026-04-29 05:17 34.51627 -117.19236 14668 ft 129 kts 234°
2026-04-29 05:17 34.51040 -117.20038 14463 ft 125 kts 234°
2026-04-29 05:18 34.50472 -117.20827 14184 ft 127 kts 235°
2026-04-29 05:18 34.49886 -117.21619 13927 ft 126 kts 234°
2026-04-29 05:18 34.49303 -117.22422 13667 ft 127 kts 234°
2026-04-29 05:18 34.48708 -117.23232 13400 ft 127 kts 235°
2026-04-29 05:19 34.48137 -117.24018 13160 ft 126 kts 234°
2026-04-29 05:19 34.47550 -117.24823 12870 ft 129 kts 234°
2026-04-29 05:19 34.46955 -117.25627 12649 ft 126 kts 233°
2026-04-29 05:19 34.46378 -117.26429 12363 ft 129 kts 233°
2026-04-29 05:20 34.45782 -117.27235 12143 ft 125 kts 232°
2026-04-29 05:20 34.45213 -117.28018 11895 ft 126 kts 234°
2026-04-29 05:20 34.44617 -117.28831 11595 ft 130 kts 232°
2026-04-29 05:20 34.44025 -117.29636 11364 ft 128 kts 233°
2026-04-29 05:21 34.43431 -117.30446 11115 ft 128 kts 231°
2026-04-29 05:21 34.42840 -117.31252 10982 ft 128 kts 230°
2026-04-29 05:21 34.42231 -117.32060 11014 ft 133 kts 232°
2026-04-29 05:21 34.41607 -117.32922 11022 ft 137 kts 232°
2026-04-29 05:22 34.40964 -117.33807 11016 ft 140 kts 231°
2026-04-29 05:22 34.40311 -117.34705 11014 ft 143 kts 231°
2026-04-29 05:22 34.39651 -117.35604 11020 ft 144 kts 231°
2026-04-29 05:22 34.38985 -117.36514 11017 ft 145 kts 231°
2026-04-29 05:23 34.38311 -117.37434 11016 ft 146 kts 231°
2026-04-29 05:23 34.37639 -117.38349 11008 ft 145 kts 231°
2026-04-29 05:23 34.36966 -117.39262 11013 ft 145 kts 231°
2026-04-29 05:23 34.36298 -117.40176 11015 ft 145 kts 231°
2026-04-29 05:24 34.35622 -117.41093 11013 ft 146 kts 230°
2026-04-29 05:24 34.34944 -117.42015 11017 ft 146 kts 231°
2026-04-29 05:24 34.34263 -117.42944 11011 ft 146 kts 231°
2026-04-29 05:24 34.33583 -117.43864 11007 ft 146 kts 230°
2026-04-29 05:25 34.32910 -117.44780 11006 ft 146 kts 231°
2026-04-29 05:25 34.32235 -117.45695 11012 ft 146 kts 231°
2026-04-29 05:25 34.31557 -117.46622 11010 ft 147 kts 231°
2026-04-29 05:25 34.30878 -117.47542 11005 ft 146 kts 231°
2026-04-29 05:26 34.30199 -117.48463 11010 ft 146 kts 231°
2026-04-29 05:26 34.29527 -117.49377 11007 ft 145 kts 231°
2026-04-29 05:26 34.28846 -117.50296 11005 ft 146 kts 230°
2026-04-29 05:26 34.28175 -117.51211 11001 ft 146 kts 230°
2026-04-29 05:27 34.27502 -117.52128 11000 ft 146 kts 231°
2026-04-29 05:27 34.26152 -117.53957 10996 ft 145 kts 231°
2026-04-29 05:27 34.25472 -117.54875 10999 ft 145 kts 231°
2026-04-29 05:28 34.24805 -117.55782 11000 ft 145 kts 230°
2026-04-29 05:28 34.24126 -117.56699 11002 ft 146 kts 230°
2026-04-29 05:28 34.23447 -117.57619 11004 ft 146 kts 230°
2026-04-29 05:28 34.22777 -117.58527 11000 ft 146 kts 231°
2026-04-29 05:29 34.22098 -117.59450 11005 ft 146 kts 230°
2026-04-29 05:29 34.21424 -117.60365 10998 ft 146 kts 230°
2026-04-29 05:29 34.20747 -117.61278 10997 ft 146 kts 231°
2026-04-29 05:29 34.20062 -117.62205 10995 ft 146 kts 231°
2026-04-29 05:30 34.19392 -117.63113 10992 ft 146 kts 230°
2026-04-29 05:30 34.18716 -117.64023 10994 ft 145 kts 231°
2026-04-29 05:30 34.18037 -117.64941 10995 ft 145 kts 231°
2026-04-29 05:30 34.17405 -117.65820 11011 ft 129 kts 232°
2026-04-29 05:31 34.16812 -117.66615 10854 ft 122 kts 231°
2026-04-29 05:31 34.16271 -117.67334 10751 ft 116 kts 232°
2026-04-29 05:31 34.15714 -117.68105 10414 ft 127 kts 231°
2026-04-29 05:31 34.15116 -117.68911 10144 ft 129 kts 231°
2026-04-29 05:32 34.14526 -117.69703 9964 ft 126 kts 231°
2026-04-29 05:32 34.13929 -117.70512 9669 ft 131 kts 231°
2026-04-29 05:32 34.13316 -117.71339 9354 ft 137 kts 231°
2026-04-29 05:32 34.12688 -117.72194 9068 ft 133 kts 230°
2026-04-29 05:33 34.12078 -117.73014 8690 ft 137 kts 230°
2026-04-29 05:33 34.11441 -117.73877 8350 ft 136 kts 229°
2026-04-29 05:33 34.10823 -117.74709 8080 ft 133 kts 230°
2026-04-29 05:33 34.10144 -117.75505 7613 ft 143 kts 213°
2026-04-29 05:34 34.09157 -117.75642 7173 ft 148 kts 168°
2026-04-29 05:34 34.08361 -117.74947 6957 ft 139 kts 136°
2026-04-29 05:34 34.07808 -117.74035 6620 ft 144 kts 110°
2026-04-29 05:34 34.07762 -117.72736 6252 ft 157 kts 91°
2026-04-29 05:35 34.07776 -117.71558 6089 ft 132 kts 89°
2026-04-29 05:35 34.07815 -117.70398 5816 ft 138 kts 86°
2026-04-29 05:35 34.07851 -117.69280 5961 ft 134 kts 88°
2026-04-29 05:35 34.07873 -117.68130 5979 ft 138 kts 89°
2026-04-29 05:36 34.07888 -117.66978 5978 ft 141 kts 90°
2026-04-29 05:36 34.07893 -117.65773 5975 ft 143 kts 90°
2026-04-29 05:36 34.07898 -117.64573 5977 ft 144 kts 91°
2026-04-29 05:36 34.07899 -117.63357 5977 ft 145 kts 90°
2026-04-29 05:37 34.07903 -117.62145 5979 ft 145 kts 90°
2026-04-29 05:37 34.07903 -117.60936 5980 ft 145 kts 90°
2026-04-29 05:37 34.07909 -117.59706 5978 ft 146 kts 90°
2026-04-29 05:37 34.07910 -117.58479 5978 ft 146 kts 89°
2026-04-29 05:38 34.07911 -117.57259 5975 ft 146 kts 88°
2026-04-29 05:38 34.07912 -117.56038 5978 ft 146 kts 89°
2026-04-29 05:38 34.07904 -117.54806 5979 ft 146 kts 88°
2026-04-29 05:38 34.07898 -117.53588 5979 ft 146 kts 88°
2026-04-29 05:39 34.07898 -117.52360 5983 ft 145 kts 88°
2026-04-29 05:39 34.07885 -117.51153 5979 ft 145 kts 93°
2026-04-29 05:39 34.07490 -117.50088 5882 ft 140 kts 139°
2026-04-29 05:39 34.06620 -117.49837 5859 ft 123 kts 187°
2026-04-29 05:40 34.05874 -117.50366 5539 ft 134 kts 232°
2026-04-29 05:40 34.05663 -117.51421 5341 ft 129 kts 281°
2026-04-29 05:40 34.06025 -117.52377 5160 ft 124 kts 305°
2026-04-29 05:40 34.06495 -117.53254 4917 ft 127 kts 306°
2026-04-29 05:41 34.06971 -117.54125 4778 ft 120 kts 307°
2026-04-29 05:41 34.07429 -117.54974 4535 ft 123 kts 306°
2026-04-29 05:41 34.07904 -117.55836 4347 ft 121 kts 306°
2026-04-29 05:41 34.08372 -117.56679 4198 ft 123 kts 306°
2026-04-29 05:42 34.08548 -117.57714 3961 ft 133 kts 266°
2026-04-29 05:42 34.08435 -117.58765 3991 ft 121 kts 266°
2026-04-29 05:42 34.08336 -117.59817 3864 ft 129 kts 266°
2026-04-29 05:42 34.08315 -117.60865 3893 ft 122 kts 274°
2026-04-29 05:43 34.08363 -117.61898 3861 ft 122 kts 274°
2026-04-29 05:43 34.08409 -117.62919 3866 ft 120 kts 275°
2026-04-29 05:43 34.08463 -117.63921 3817 ft 124 kts 274°
2026-04-29 05:43 34.08515 -117.64934 3620 ft 118 kts 275°
2026-04-29 05:44 34.08558 -117.65904 3433 ft 114 kts 277°
2026-04-29 05:44 34.08600 -117.66836 3257 ft 108 kts 277°
2026-04-29 05:44 34.08640 -117.67723 3081 ft 106 kts 277°
2026-04-29 05:44 34.08689 -117.68613 2905 ft 104 kts 275°
2026-04-29 05:45 34.08733 -117.69479 2723 ft 101 kts 275°
2026-04-29 05:45 34.08767 -117.70258 2548 ft 86 kts 274°
2026-04-29 05:45 34.08793 -117.70946 2411 ft 84 kts 269°
2026-04-29 05:45 34.08817 -117.71712 2261 ft 99 kts 272°
2026-04-29 05:46 34.08861 -117.72570 2083 ft 103 kts 272°
2026-04-29 05:46 34.08907 -117.73439 1905 ft 105 kts 271°
2026-04-29 05:46 34.08949 -117.74316 1718 ft 101 kts 272°
2026-04-29 05:46 34.08987 -117.75058 1568 ft 81 kts 269°
2026-04-29 05:47 34.09012 -117.75721 1432 ft 78 kts 269°
2026-04-29 05:47 34.09043 -117.76367 1298 ft 77 kts 270°
2026-04-29 05:47 34.09070 -117.77012 1159 ft 77 kts 270°
2026-04-29 05:47 34.09111 -117.77624 1044 ft 67 kts 275°
2026-04-29 05:48 34.09127 -117.78087 1002 ft 41 kts 276°
2026-04-29 05:48 34.09123 -117.78197 1000 ft 9 kts 237°
2026-04-29 05:48 34.09074 -117.78267 999 ft 10 kts 233°
2026-04-29 05:48 34.09008 -117.78359 1000 ft 19 kts 194°